EW1613 Weather Reports


Display with metric or nautical units.
time (UTC)temp
F
wind
direction
speed
MPH
gust
MPH
rain 1hr
in
rain 24hr
in
rain mn
in
humidity
%
barometer
mb
20260903145555 92 219 3.0 6.0 0.00 0.00 0.00 44 1016.9
20260903145048 92 157 4.0 5.0 0.00 0.00 0.00 44 1017.0
20260903144609 92 186 3.0 6.0 0.00 0.00 0.00 43 1017.1
20260903144103 92 191 3.0 5.0 0.00 0.00 0.00 43 1017.3
20260903143603 92 139 3.0 5.0 0.00 0.00 0.00 43 1017.3
20260903143104 92 244 3.0 7.0 0.00 0.00 0.00 43 1017.4
20260903142558 93 166 4.0 7.0 0.00 0.00 0.00 43 1017.6
20260903142051 93 182 2.0 7.0 0.00 0.00 0.00 43 1017.6
20260903141612 93 212 4.0 6.0 0.00 0.00 0.00 43 1017.6
20260903141052 93 206 1.0 4.0 0.00 0.00 0.00 43 1017.6
20260903140606 93 222 2.0 6.0 0.00 0.00 0.00 43 1017.7
20260903140127 93 231 3.0 7.0 0.00 0.00 0.00 43 1017.8
20260903135606 93 202 4.0 7.0 0.00 0.00 0.00 42 1017.8
20260903135127 93 167 0.0 9.0 0.00 0.00 0.00 42 1017.7
20260903134559 93 185 4.0 9.0 0.00 0.00 0.00 42 1017.7
20260903134122 93 136 2.0 7.0 0.00 0.00 0.00 42 1017.7
20260903133554 93 219 4.0 7.0 0.00 0.00 0.00 42 1017.7
20260903133054 93 240 1.0 4.0 0.00 0.00 0.00 41 1017.8
20260903132548 92 202 1.0 7.0 0.00 0.00 0.00 42 1017.8
20260903132049 92 252 0.0 7.0 0.00 0.00 0.00 42 1017.9
20260903131603 93 246 2.0 7.0 0.00 0.00 0.00 41 1017.9
20260903131103 92 190 0.0 4.0 0.00 0.00 0.00 42 1017.9
20260903130557 92 192 2.0 7.0 0.00 0.00 0.00 41 1017.9
20260903130057 92 211 3.0 9.0 0.00 0.00 0.00 42 1017.9
20260903125551 93 223 6.0 9.0 0.00 0.00 0.00 41 1017.9
20260903125053 93 234 3.0 6.0 0.00 0.00 0.00 41 1017.9
20260903124606 93 245 1.0 5.0 0.00 0.00 0.00 41 1018.0
20260903124106 93 244 1.0 5.0 0.00 0.00 0.00 41 1018.2
20260903123607 93 248 2.0 7.0 0.00 0.00 0.00 41 1018.2
20260903123056 92 165 3.0 7.0 0.00 0.00 0.00 42 1018.3
20260903122617 92 200 3.0 7.0 0.00 0.00 0.00 43 1018.3
20260903122057 92 83 2.0 6.0 0.00 0.00 0.00 41 1018.3
20260903121548 93 126 3.0 5.0 0.00 0.00 0.00 41 1018.3
20260903121109 93 223 0.0 4.0 0.00 0.00 0.00 42 1018.4
20260903120602 92 279 1.0 4.0 0.00 0.00 0.00 42 1018.4
20260903115554 92 59 1.0 4.0 0.00 0.00 0.00 42 1018.5
20260903115055 92 5 1.0 3.0 0.00 0.00 0.00 42 1018.4
20260903114548 93 112 2.0 5.0 0.00 0.00 0.00 42 1018.4
20260903114109 92 144 2.0 5.0 0.00 0.00 0.00 43 1018.5
20260903113603 92 140 1.0 3.0 0.00 0.00 0.00 42 1018.5
20260903113104 91 139 1.0 4.0 0.00 0.00 0.00 42 1018.6
20260903112558 90 105 1.0 4.0 0.00 0.00 0.00 44 1018.7
20260903112058 89 105 1.0 5.0 0.00 0.00 0.00 45 1018.8
20260903111552 90 41 3.0 5.0 0.00 0.00 0.00 44 1018.8
20260903111112 90 82 2.0 6.0 0.00 0.00 0.00 45 1018.9
20260903110606 91 61 1.0 4.0 0.00 0.00 0.00 43 1018.9
20260903110107 91 103 2.0 5.0 0.00 0.00 0.00 44 1018.9
20260903105601 91 195 1.0 3.0 0.00 0.00 0.00 44 1018.9
20260903105122 90 136 1.0 4.0 0.00 0.00 0.00 44 1019.0
20260903104554 89 140 1.0 4.0 0.00 0.00 0.00 45 1019.0
20260903104056 89 111 2.0 4.0 0.00 0.00 0.00 46 1018.9
20260903103550 89 97 1.0 6.0 0.00 0.00 0.00 46 1019.0
20260903103051 89 103 3.0 6.0 0.00 0.00 0.00 47 1019.1
20260903102604 88 175 1.0 4.0 0.00 0.00 0.00 47 1019.2
20260903102106 88 96 3.0 6.0 0.00 0.00 0.00 46 1019.2
20260903101559 88 67 2.0 6.0 0.00 0.00 0.00 48 1019.3
20260903101101 87 55 3.0 6.0 0.00 0.00 0.00 48 1019.4
20260903100555 87 9 2.0 5.0 0.00 0.00 0.00 48 1019.4
20260903100055 87 105 1.0 4.0 0.00 0.00 0.00 49 1019.4
20260903095548 87 64 2.0 4.0 0.00 0.00 0.00 49 1019.6
20260903095049 86 48 2.0 4.0 0.00 0.00 0.00 50 1019.7
20260903094603 86 360 3.0 5.0 0.00 0.00 0.00 50 1019.8
20260903094104 86 45 2.0 5.0 0.00 0.00 0.00 50 1019.8
20260903093558 86 92 2.0 5.0 0.00 0.00 0.00 50 1019.7
20260903093059 85 9 1.0 6.0 0.00 0.00 0.00 52 1019.8
20260903092622 85 74 3.0 7.0 0.00 0.00 0.00 50 1019.8
20260903092053 85 63 3.0 5.0 0.00 0.00 0.00 51 1019.8
20260903091547 85 51 1.0 5.0 0.00 0.00 0.00 51 1019.9
20260903091048 85 65 3.0 8.0 0.00 0.00 0.00 51 1020.0
20260903090548 85 50 3.0 8.0 0.00 0.00 0.00 50 1020.0
20260903090126 85 53 2.0 5.0 0.00 0.00 0.00 52 1020.0
20260903085559 85 78 2.0 4.0 0.00 0.00 0.00 52 1019.9
20260903085059 84 78 3.0 4.0 0.00 0.00 0.00 52 1019.9
20260903084553 84 28 3.0 5.0 0.00 0.00 0.00 52 1019.9
20260903084114 84 70 3.0 5.0 0.00 0.00 0.00 53 1019.9
20260903083548 84 84 1.0 4.0 0.00 0.00 0.00 55 1019.8
20260903083102 83 26 1.0 4.0 0.00 0.00 0.00 54 1019.9
20260903082602 82 39 1.0 5.0 0.00 0.00 0.00 56 1019.8
20260903082123 82 58 2.0 6.0 0.00 0.00 0.00 57 1019.8
20260903081556 82 49 2.0 6.0 0.00 0.00 0.00 58 1019.8
20260903081056 82 37 1.0 4.0 0.00 0.00 0.00 61 1019.8
20260903080612 81 63 2.0 4.0 0.00 0.00 0.00 61 1019.8
20260903080050 80 13 1.0 3.0 0.00 0.00 0.00 65 1019.9
20260903075611 80 345 1.0 3.0 0.00 0.00 0.00 67 1019.9
20260903075102 79 346 1.0 4.0 0.00 0.00 0.00 68 1019.9
20260903074557 79 42 1.0 4.0 0.00 0.00 0.00 68 1019.8
20260903074118 78 66 2.0 4.0 0.00 0.00 0.00 69 1019.8
20260903073551 78 12 3.0 4.0 0.00 0.00 0.00 69 1019.8
20260903073052 78 15 2.0 4.0 0.00 0.00 0.00 69 1019.8
20260903072632 78 21 2.0 4.0 0.00 0.00 0.00 68 1019.8
20260903072105 78 5 2.0 3.0 0.00 0.00 0.00 70 1019.8
20260903071626 77 40 1.0 3.0 0.00 0.00 0.00 71 1019.8
20260903071058 77 335 1.0 3.0 0.00 0.00 0.00 71 1019.8
20260903070618 76 330 1.0 3.0 0.00 0.00 0.00 71 1019.8
20260903070117 76 331 1.0 3.0 0.00 0.00 0.00 72 1019.8
20260903065550 75 331 1.0 3.0 0.00 0.00 0.00 73 1019.8
20260903065050 75 331 1.0 3.0 0.00 0.00 0.00 73 1019.8
20260903064611 74 331 1.0 3.0 0.00 0.00 0.00 75 1019.8
20260903064122 74 332 1.0 2.0 0.00 0.00 0.00 75 1019.8
20260903063546 74 332 1.0 2.0 0.00 0.00 0.00 76 1019.7
20260903063123 73 332 0.0 2.0 0.00 0.00 0.00 77 1019.7
20260903062554 73 332 0.0 2.0 0.00 0.00 0.00 78 1019.7
20260903062055 72 332 1.0 3.0 0.00 0.00 0.00 78 1019.6
20260903061549 72 332 2.0 3.0 0.00 0.00 0.00 78 1019.6
20260903061109 72 336 1.0 3.0 0.00 0.00 0.00 78 1019.5
20260903060609 72 338 1.0 3.0 0.00 0.00 0.00 78 1019.4
20260903060109 72 350 2.0 3.0 0.00 0.00 0.00 77 1019.4
20260903055610 71 350 1.0 3.0 0.00 0.00 0.00 78 1019.4
20260903055102 71 350 0.0 3.0 0.00 0.00 0.00 78 1019.3
20260903054556 71 350 0.0 2.0 0.00 0.00 0.00 78 1019.3
20260903054056 71 350 1.0 2.0 0.00 0.00 0.00 79 1019.2
20260903053551 70 342 0.0 2.0 0.00 0.00 0.00 79 1019.2
20260903053051 70 341 0.0 3.0 0.00 0.00 0.00 79 1019.2
20260903052611 70 340 1.0 3.0 0.00 0.00 0.00 79 1019.1
20260903052105 70 327 0.0 1.0 0.00 0.00 0.00 80 1019.1
20260903051626 70 327 0.0 2.0 0.00 0.00 0.00 80 1019.0
20260903051126 70 327 1.0 2.0 0.00 0.00 0.00 80 1018.9
20260903050558 70 327 0.0 0.0 0.00 0.00 0.00 80 1018.9
20260903050053 70 326 0.0 0.0 0.00 0.00 0.00 80 1018.7
20260903045553 69 326 0.0 0.0 0.00 0.00 0.00 80 1018.6
20260903045047 69 326 0.0 0.0 0.00 0.00 0.00 80 1018.5
20260903044548 69 326 0.0 0.0 0.00 0.00 0.00 80 1018.5
20260903044048 69 326 0.0 0.0 0.00 0.00 0.00 80 1018.5
20260903043603 69 326 0.0 0.0 0.00 0.00 0.00 80 1018.5
20260903043103 69 326 0.0 0.0 0.00 0.00 0.00 80 1018.5
20260903042557 70 326 0.0 0.0 0.00 0.00 0.00 80 1018.5
20260903042119 70 326 0.0 0.0 0.00 0.00 0.00 80 1018.4
20260903041600 70 326 0.0 0.0 0.00 0.00 0.00 79 1018.4
20260903041053 70 326 0.0 0.0 0.00 0.00 0.00 79 1018.4
20260903040548 70 326 0.0 0.0 0.00 0.00 0.00 79 1018.5
20260903040049 70 326 0.0 0.0 0.00 0.00 0.00 79 1018.4
20260903035605 70 326 0.0 0.0 0.00 0.00 0.00 79 1018.4
20260903035059 70 326 0.0 0.0 0.00 0.00 0.00 79 1018.4
20260903034553 70 326 0.0 0.0 0.00 0.00 0.00 79 1018.4
20260903034114 70 326 0.0 0.0 0.00 0.00 0.00 79 1018.5
20260903033553 70 326 0.0 1.0 0.00 0.00 0.00 79 1018.4
20260903033047 70 326 0.0 1.0 0.00 0.00 0.00 79 1018.4
20260903032548 70 326 0.0 0.0 0.00 0.00 0.00 79 1018.4
20260903032102 70 326 0.0 1.0 0.00 0.00 0.00 79 1018.4
20260903031602 70 326 0.0 1.0 0.00 0.00 0.00 79 1018.5
20260903031056 70 326 0.0 2.0 0.00 0.00 0.00 79 1018.5
20260903030556 70 326 1.0 3.0 0.00 0.00 0.00 79 1018.5
20260903030110 70 326 0.0 3.0 0.00 0.00 0.00 79 1018.5
20260903025550 70 326 1.0 3.0 0.00 0.00 0.00 79 1018.5
20260903025112 71 325 1.0 2.0 0.00 0.00 0.00 79 1018.5
20260903024546 71 325 1.0 2.0 0.00 0.00 0.00 79 1018.5
20260903024127 71 325 0.0 2.0 0.00 0.00 0.00 79 1018.5
20260903023559 71 325 1.0 3.0 0.00 0.00 0.00 79 1018.5
20260903023100 71 325 1.0 3.0 0.00 0.00 0.00 79 1018.5
20260903022554 71 328 0.0 1.0 0.00 0.00 0.00 79 1018.5
20260903022055 71 328 0.0 3.0 0.00 0.00 0.00 79 1018.5
20260903021548 71 328 1.0 3.0 0.00 0.00 0.00 79 1018.5
20260903021049 71 328 2.0 3.0 0.00 0.00 0.00 79 1018.5
20260903020603 71 328 2.0 3.0 0.00 0.00 0.00 78 1018.5
20260903020104 71 328 1.0 4.0 0.00 0.00 0.00 78 1018.6
20260903015558 71 329 2.0 4.0 0.00 0.00 0.00 78 1018.6
20260903015119 71 320 2.0 3.0 0.00 0.00 0.00 78 1018.6
20260903014551 71 318 2.0 3.0 0.00 0.00 0.00 78 1018.7
20260903014052 71 321 2.0 3.0 0.00 0.00 0.00 78 1018.6
20260903013613 71 322 1.0 2.0 0.00 0.00 0.00 78 1018.7
20260903013047 71 322 0.0 2.0 0.00 0.00 0.00 78 1018.6
20260903012607 71 322 1.0 2.0 0.00 0.00 0.00 78 1018.6
20260903012100 72 322 1.0 3.0 0.00 0.00 0.00 78 1018.6
20260903011554 72 322 1.0 3.0 0.00 0.00 0.00 78 1018.6
20260903011055 72 322 1.0 2.0 0.00 0.00 0.00 78 1018.7
20260903010548 71 322 0.0 3.0 0.00 0.00 0.00 78 1018.6
20260903010049 72 322 1.0 5.0 0.00 0.00 0.00 78 1018.6
20260903005610 72 319 2.0 5.0 0.00 0.00 0.00 78 1018.5
20260903005104 72 336 2.0 5.0 0.00 0.00 0.00 78 1018.6
20260903004557 72 323 1.0 3.0 0.00 0.00 0.00 78 1018.6
20260903004118 72 323 1.0 3.0 0.00 0.00 0.00 78 1018.5
20260903003618 72 323 2.0 3.0 0.00 0.00 0.00 78 1018.4
20260903003058 72 325 2.0 3.0 0.00 0.00 0.00 78 1018.5
20260903002551 72 326 0.0 0.0 0.00 0.00 0.00 79 1018.4
20260903002111 72 326 0.0 0.0 0.00 0.00 0.00 79 1018.4
20260903001559 72 326 0.0 0.0 0.00 0.00 0.00 79 1018.5
20260903001120 72 326 0.0 0.0 0.00 0.00 0.00 79 1018.5
20260903000559 72 326 0.0 0.0 0.00 0.00 0.00 79 1018.5
20260903000053 72 326 0.0 0.0 0.00 0.00 0.00 79 1018.4
20260902235553 72 326 0.0 0.0 0.00 0.00 0.00 80 1018.5
20260902235107 72 326 0.0 0.0 0.00 0.00 0.00 80 1018.5
20260902234547 72 326 0.0 1.0 0.00 0.00 0.00 80 1018.4
20260902234108 72 326 0.0 3.0 0.00 0.00 0.00 80 1018.4
20260902233602 72 326 2.0 3.0 0.00 0.00 0.00 80 1018.4
20260902233122 72 327 1.0 3.0 0.00 0.00 0.00 80 1018.4
20260902232622 73 328 2.0 4.0 0.00 0.00 0.00 80 1018.4
20260902232103 73 327 2.0 3.0 0.00 0.00 0.00 79 1018.5
20260902231555 73 325 1.0 3.0 0.00 0.00 0.00 78 1018.4
20260902231048 74 323 1.0 3.0 0.00 0.00 0.00 78 1018.4
20260902230549 74 323 0.0 0.0 0.00 0.00 0.00 77 1018.3
20260902230048 74 323 0.0 0.0 0.00 0.00 0.00 76 1018.2
20260902225602 74 323 0.0 0.0 0.00 0.00 0.00 76 1018.2
20260902225103 74 323 0.0 0.0 0.00 0.00 0.00 76 1018.2
20260902224556 74 323 0.0 0.0 0.00 0.00 0.00 76 1018.2
20260902224058 74 323 0.0 0.0 0.00 0.00 0.00 76 1018.2
20260902223551 74 323 0.0 0.0 0.00 0.00 0.00 76 1018.2
20260902223052 74 323 0.0 0.0 0.00 0.00 0.00 76 1018.2
20260902222633 74 323 0.0 1.0 0.00 0.00 0.00 76 1018.1
20260902222106 75 323 0.0 1.0 0.00 0.00 0.00 75 1018.1
20260902221606 75 323 0.0 0.0 0.00 0.00 0.00 75 1018.1
20260902221120 75 323 0.0 2.0 0.00 0.00 0.00 75 1018.0
20260902220600 75 323 1.0 3.0 0.00 0.00 0.00 74 1018.1
20260902220059 75 323 2.0 3.0 0.00 0.00 0.00 74 1018.0
20260902215553 75 318 0.0 2.0 0.00 0.00 0.00 73 1017.9
20260902215049 76 317 0.0 3.0 0.00 0.00 0.00 72 1017.9
20260902214609 76 317 2.0 3.0 0.00 0.00 0.00 71 1017.9
20260902214104 77 316 0.0 4.0 0.00 0.00 0.00 70 1017.8
20260902213604 78 316 0.0 5.0 0.00 0.00 0.00 69 1017.8
20260902213058 79 321 3.0 5.0 0.00 0.00 0.00 66 1017.8
20260902212559 79 112 0.0 2.0 0.00 0.00 0.00 64 1017.7
20260902212053 79 112 0.0 3.0 0.00 0.00 0.00 64 1017.7
20260902211554 79 112 1.0 3.0 0.00 0.00 0.00 64 1017.6
20260902211047 79 112 1.0 3.0 0.00 0.00 0.00 64 1017.6
20260902210548 79 117 1.0 3.0 0.00 0.00 0.00 64 1017.5
20260902205601 79 144 1.0 3.0 0.00 0.00 0.00 64 1017.4
20260902205102 79 143 0.0 3.0 0.00 0.00 0.00 64 1017.4
20260902204615 79 143 1.0 3.0 0.00 0.00 0.00 64 1017.4
20260902204055 79 138 0.0 4.0 0.00 0.00 0.00 64 1017.4
20260902203549 79 136 2.0 4.0 0.00 0.00 0.00 64 1017.3
20260902203049 79 154 1.0 3.0 0.00 0.00 0.00 65 1017.3
20260902202609 79 149 2.0 5.0 0.00 0.00 0.00 64 1017.2
20260902202103 80 164 2.0 7.0 0.00 0.00 0.00 64 1017.2
20260902201557 80 175 2.0 7.0 0.00 0.00 0.00 64 1017.1
20260902201058 80 129 2.0 6.0 0.00 0.00 0.00 64 1017.1
20260902200551 80 128 1.0 4.0 0.00 0.00 0.00 65 1017.1
20260902200052 80 144 2.0 4.0 0.00 0.00 0.00 64 1017.2
20260902195546 80 142 1.0 3.0 0.00 0.00 0.00 64 1017.2
20260902195047 81 183 1.0 4.0 0.00 0.00 0.00 63 1017.2
20260902194601 81 181 2.0 4.0 0.00 0.00 0.00 63 1017.2
20260902194102 81 171 1.0 3.0 0.00 0.00 0.00 62 1017.2
20260902193555 81 171 1.0 3.0 0.00 0.00 0.00 62 1017.2
20260902193057 81 168 1.0 3.0 0.00 0.00 0.00 61 1017.2
20260902192551 82 171 0.0 3.0 0.00 0.00 0.00 60 1017.1
20260902192052 82 157 1.0 3.0 0.00 0.00 0.00 60 1017.1
20260902191555 82 154 0.0 3.0 0.00 0.00 0.00 59 1017.0
20260902191047 82 157 0.0 2.0 0.00 0.00 0.00 59 1017.0
20260902190607 83 157 1.0 3.0 0.00 0.00 0.00 58 1016.9
20260902185602 83 164 1.0 3.0 0.00 0.00 0.00 57 1016.9
20260902185056 84 173 0.0 3.0 0.00 0.00 0.00 57 1016.8
20260902184616 84 173 1.0 3.0 0.00 0.00 0.00 56 1016.7
20260902184049 84 171 2.0 3.0 0.00 0.00 0.00 55 1016.7
20260902183550 85 154 1.0 3.0 0.00 0.00 0.00 53 1016.6
20260902183111 85 152 0.0 3.0 0.00 0.00 0.00 51 1016.5
20260902182626 85 153 1.0 3.0 0.00 0.00 0.00 51 1016.4
20260902182059 86 174 0.0 1.0 0.00 0.00 0.00 50 1016.4
20260902181600 86 174 0.0 0.0 0.00 0.00 0.00 50 1016.4
20260902181051 86 174 0.0 0.0 0.00 0.00 0.00 50 1016.4
20260902180611 86 174 0.0 0.0 0.00 0.00 0.00 50 1016.3
20260902180051 87 174 0.0 0.0 0.00 0.00 0.00 48 1016.2
20260902175605 87 174 0.0 0.0 0.00 0.00 0.00 47 1016.1
20260902175048 87 174 0.0 0.0 0.00 0.00 0.00 47 1016.1
20260902174601 87 174 0.0 2.0 0.00 0.00 0.00 47 1016.1
20260902174102 87 174 0.0 2.0 0.00 0.00 0.00 47 1016.1
20260902173554 88 174 0.0 3.0 0.00 0.00 0.00 46 1016.0
20260902173055 88 173 1.0 3.0 0.00 0.00 0.00 46 1016.0
20260902172609 88 173 0.0 3.0 0.00 0.00 0.00 46 1016.1
20260902172049 88 175 0.0 2.0 0.00 0.00 0.00 45 1016.1
20260902171609 88 177 0.0 3.0 0.00 0.00 0.00 46 1016.1
20260902171132 88 177 1.0 3.0 0.00 0.00 0.00 45 1016.0
20260902170603 89 180 0.0 3.0 0.00 0.00 0.00 46 1016.1
20260902170057 89 183 1.0 4.0 0.00 0.00 0.00 45 1016.1
20260902165558 89 185 2.0 5.0 0.00 0.00 0.00 45 1016.1
20260902165052 89 207 3.0 5.0 0.00 0.00 0.00 44 1016.1
20260902164552 90 186 3.0 5.0 0.00 0.00 0.00 43 1016.1
20260902164105 90 184 2.0 4.0 0.00 0.00 0.00 43 1016.1
20260902163546 90 192 2.0 4.0 0.00 0.00 0.00 43 1016.1
20260902163100 90 212 1.0 5.0 0.00 0.00 0.00 43 1016.1
20260902162600 90 190 2.0 5.0 0.00 0.00 0.00 43 1016.0
20260902162054 90 160 0.0 5.0 0.00 0.00 0.00 42 1016.0
20260902161554 90 159 2.0 5.0 0.00 0.00 0.00 42 1016.1
20260902161048 91 207 1.0 4.0 0.00 0.00 0.00 42 1016.1
20260902160609 91 207 3.0 4.0 0.00 0.00 0.00 42 1016.0
20260902160048 91 188 1.0 5.0 0.00 0.00 0.00 42 1016.1
20260902155609 91 219 0.0 3.0 0.00 0.00 0.00 41 1016.1
20260902155123 91 213 1.0 3.0 0.00 0.00 0.00 41 1016.1
20260902154602 91 215 1.0 5.0 0.00 0.00 0.00 41 1016.1
20260902154057 91 239 3.0 5.0 0.00 0.00 0.00 40 1016.1
20260902153558 91 219 0.0 4.0 0.00 0.00 0.00 41 1016.2
20260902153052 92 219 1.0 4.0 0.00 0.00 0.00 41 1016.2
20260902152552 92 217 1.0 4.0 0.00 0.00 0.00 41 1016.2
20260902152046 91 251 1.0 4.0 0.00 0.00 0.00 42 1016.2
20260902151602 91 290 2.0 5.0 0.00 0.00 0.00 41 1016.3
20260902151123 91 210 1.0 5.0 0.00 0.00 0.00 42 1016.4
20260902150603 91 196 2.0 5.0 0.00 0.00 0.00 42 1016.4
20260902150125 91 253 2.0 5.0 0.00 0.00 0.00 42 1016.4